Location: Ash Swamp
(41.5170°N, 74.6157°W)
Time: 01:06:49
(UTC+00:00)

ERBS - Pass Details

Date: 14 July 2020
Orbit: 408 x 425 km, 57.0° (Epoch: 14 August)

Event Time Altitude Azimuth Distance (km) Brightness Sun altitude
Exits shadow 08:58:57 - 224° (SW) 1,566 4.5 -6.8°
Reaches altitude 10° 08:59:11 10° 224° (SW) 1,470 4.3 -6.8°
Maximum altitude 09:02:28 90° 100° (E) 414 2.2 -6.3°
Drops below altitude 10° 09:05:46 10° 45° (NE) 1,476 6.8 -5.8°
Sets 09:07:50 0° 46° (NE) 2,340 8.4 -5.5°
